Location: Poroporo
(41.0500°S, 175.7167°E)
Time: 00:42:50
(UTC+00:00)

Daily predictions for brighter satellites

Satellite Brightness Start Highest point End
(mag) Time Altitude Azimuth Time Altitude Azimuth Time Altitude Azimuth
Cosmos 44 3.7 05:20:56 10° NW 05:25:09 54° SW 05:29:34 10° SSE
Cosmos 1190 Rocket 4.2 05:20:12 10° S 05:25:22 50° ESE 05:30:29 10° NE
Cosmos 2369 Rocket 2.8 05:20:54 10° N 05:26:09 39° ENE 05:31:26 10° SE
USA 276 3.2 05:25:28 10° WSW 05:27:21 21° SSW 05:29:19 10° SE
Cosmos 1626 3.7 05:26:54 10° SE 05:28:09 12° ESE 05:29:24 10° E
Cosmos 1371 Rocket 4.1 05:23:07 10° N 05:28:15 59° ENE 05:33:24 10° SSE
Meteor 1-20 Rocket 4.2 05:25:25 10° N 05:30:55 90° W 05:36:30 10° S
H-2A R/B 3.6 05:26:58 10° S 05:31:36 35° WSW 05:36:18 10° NW
ATLAS 3B R/B 2.7 05:25:22 10° NNW 05:32:22 76° ENE 05:38:56 10° SE
NOSS 3-1 (A) 4.4 05:23:55 10° NNW 05:33:23 87° ENE 05:41:41 10° SE
Meteor 2-4 Rocket 4.4 05:28:55 10° S 05:34:20 36° ESE 05:39:46 10° NE
NOAA 12 4.1 05:29:25 10° SSE 05:34:45 74° ENE 05:40:00 10° N
Helios 1A 3.6 05:32:58 10° NE 05:36:40 33° ESE 05:40:24 10° S
FengYun 1-2 T 4.4 05:33:06 10° SSE 05:38:46 82° WSW 05:44:19 10° NNW
SKYMED 2 3.8 05:36:04 10° N 05:40:27 79° WNW 05:44:54 10° SSW
Meteor 1-27 Rocket 3.7 05:36:25 10° S 05:42:03 90° ESE 05:47:36 10° N
ARIANE 5 R/B 2.6 05:36:59 10° SSE 05:42:19 89° WSW 05:47:33 10° NNW
H-2A R/B 3.7 05:40:27 10° S 05:43:34 40° WSW 05:46:37 10° NW
Cosmos 2297 3.7 05:38:25 10° NNW 05:44:01 72° ENE 05:49:42 10° SSE
Okean 1 3.7 05:41:21 10° SSW 05:45:15 67° W 05:49:08 10° N
ISS -3.6 05:43:06 10° WNW 05:46:32 77° SW 05:49:27 14° SE
PSLV R/B 4.2 05:44:57 10° SSE 05:48:46 33° E 05:52:31 10° NNE
COSMOS 2406 4.4 05:45:25 10° SW 05:50:59 49° WNW 05:56:31 10° N
ARGOS 3.9 05:45:45 10° S 05:51:03 55° WSW 05:56:17 10° NNW
Cosmos 1891 Rocket 4.5 05:45:34 10° N 05:51:38 89° W 05:57:46 10° S
Cosmos 2285 Rocket 4.5 05:45:39 10° SSW 05:51:57 67° WNW 05:58:12 10° N
SJ-11-01 4.3 05:47:33 10° SSE 05:52:23 82° ENE 05:57:08 10° N
Cosmos 1464 Rocket 4.0 05:46:24 10° N 05:52:32 66° E 05:58:48 10° SSE
COSMOS 2455 4.3 05:49:08 10° S 05:52:47 16° SE 05:54:52 14° ESE
USA 229 DEB 4.4 05:46:25 10° N 05:54:05 48° ENE 06:00:51 12° SE
USA 229 4.4 05:46:33 10° N 05:54:14 48° ENE 06:00:57 12° SE
Geosat 4.3 05:53:26 10° NNE 05:58:26 72° WNW 06:03:31 10° SSW
TRACE 4.5 05:55:30 10° NNE 05:58:56 58° ESE 06:02:26 10° S
Cosmos 1943 Rocket 4.2 05:56:34 10° WNW 06:00:55 23° SW 06:05:18 10° S
USA 307 1.3 06:00:42 10° WNW 06:02:19 50° SW 06:02:54 32° SSE
CZ-4C R/B 2.9 05:58:58 10° SSW 06:03:35 26° SE 06:05:47 19° ESE
SL-19 R/B 4.2 05:58:43 10° SSE 06:04:19 89° ENE 06:09:37 10° NNW
USA 305 2.9 06:06:20 10° W 06:07:43 20° SSW 06:08:13 19° S
SL-08 R/B 3.2 06:03:10 10° NNE 06:07:46 74° ESE 06:12:27 10° S
Transit 2A Rocket 4.4 06:09:42 10° SSW 06:14:03 77° ESE 06:18:21 10° NNE
Cosmos 1241 Rocket 4.4 06:10:46 10° SSW 06:17:12 77° ESE 06:23:28 10° NE
Milstar 3 4.2 06:11:51 10° NW 06:17:27 27° N 06:23:21 10° ENE
CORIOLIS 4.4 06:13:41 10° SSE 06:19:01 49° E 06:24:18 10° N
Cosmos 1634 Rocket 4.5 06:14:01 10° NNE 06:19:38 37° E 06:25:19 10° SSE
Okean 3 Rocket 4.4 06:16:04 10° NNE 06:20:01 30° E 06:21:16 26° ESE
Cosmos 2056 Rocket 4.4 06:15:45 10° NW 06:20:41 47° WSW 06:25:42 10° S
Cosmos 1656 Rocket 4.4 06:16:54 10° NW 06:22:29 55° WSW 06:28:07 10° SSE
Cosmos 1452 Rocket 3.7 06:17:35 10° N 06:22:41 51° ENE 06:26:14 20° SE
Cosmos 2263 4.2 06:17:29 10° NNW 06:23:16 84° ENE 06:28:26 13° SSE
Cosmos 1328 Rocket 3.7 06:19:29 10° S 06:23:49 50° E 06:28:03 10° NNE
Cosmos 1743 2.5 06:20:17 10° N 06:23:58 66° E 06:26:37 18° SSE
Nadezhda 4 Rocket 4.0 06:21:49 10° S 06:28:05 88° W 06:34:20 10° N
SKYMED 3 4.3 06:24:37 10° NNE 06:28:41 88° ESE 06:32:48 10° SSW
BREEZE-M R/B 4.2 06:24:53 10° SW 06:29:03 45° SSE 06:32:44 26° E
Cosmos 1066 Rocket 4.3 06:25:09 10° S 06:30:56 60° ESE 06:36:43 10° NNE
Cosmos 968 Rocket 4.1 06:27:20 10° S 06:31:55 31° ESE 06:32:06 31° ESE
Cosmos 1151 Rocket 4.0 06:28:51 10° SSW 06:33:08 49° W 06:37:20 10° NNW
Cosmos 1850 Rocket 4.2 06:28:11 10° S 06:33:23 47° ESE 06:38:30 10° NE
ADEOS Rocket 3.8 06:32:52 27° ESE 06:34:15 30° E 06:40:00 10° NNE
Meteor 1-14 Rocket 4.3 06:30:07 10° N 06:35:42 55° E 06:40:14 15° SSE
USA 59 Rocket 2.8 06:28:37 10° NNE 06:36:10 29° ENE 06:39:02 26° E
OAO 2 Rocket 4.2 06:31:18 10° WNW 06:36:17 43° N 06:39:00 24° ENE
Meteor 1-18 Rocket 4.4 06:31:29 10° S 06:37:31 85° W 06:43:28 10° N
SMAP 3.0 06:34:18 13° SSE 06:38:33 80° ENE 06:43:15 10° N
Lacrosse 5 3.8 06:36:39 10° WSW 06:40:23 20° SSW 06:42:55 14° SSE
Cosmos 1092 Rocket 4.0 06:35:13 10° S 06:41:29 62° E 06:47:43 10° NNE
Cosmos 1110 Rocket 3.9 06:38:00 10° NNW 06:43:10 77° ENE 06:46:12 26° SSE
IKONOS-2 4.4 06:49:04 10° NNE 06:53:14 63° ESE 06:57:28 10° S
Cosmos 1766 Rocket 4.0 06:50:02 10° NNW 06:54:20 60° W 06:58:00 14° S
Meteor 1-31 Rocket 4.1 06:56:28 27° NNE 06:56:28 27° NNE 06:58:20 10° N
USA 306 4.4 06:52:41 10° WSW 06:55:23 19° SSW 06:55:39 19° SSW
Cosmos 1741 Rocket 3.9 06:50:56 10° SSW 06:56:12 70° ESE 07:01:26 10° NNE
Cosmos 2026 Rocket 3.9 06:54:12 10° S 07:00:41 87° E 07:07:00 10° N
Cosmos 1626 3.7 06:58:46 10° SSW 07:01:42 30° W 07:04:35 10° NNW
Cosmos 1833 4.2 06:57:03 10° SSW 07:02:54 90° WNW 07:08:39 10° NNE
Cosmos 2369 Rocket 3.8 07:05:07 10° WNW 07:10:12 32° WSW 07:14:50 12° S
CENTAUR R/B 3.8 07:12:37 10° SSW 07:14:55 20° S 07:14:55 20° S
Cosmos 2279 Rocket 3.8 07:14:07 10° N 07:20:22 74° E 07:21:59 52° SSE
Lacrosse 4 Rocket 3.1 07:17:21 10° NNW 07:19:14 25° N 07:19:14 25° N
Cosmos 2142 Rocket 4.4 07:16:00 10° N 07:21:47 64° ENE 07:21:47 64° ENE
ATLAS 3B R/B 4.3 07:18:05 10° W 07:23:37 26° SW 07:27:17 16° S
ISS -1.0 07:21:12 10° WSW 07:22:24 16° SW 07:22:24 16° SW
Cosmos 1726 4.4 07:21:34 10° NW 07:22:24 16° NW 07:22:24 16° NW
ATLAS 5 CENTAUR R/B 3.1 07:27:41 10° NW 07:33:50 41° WSW 07:33:50 41° WSW
COSMOS 2455 3.3 07:33:41 10° SSW 07:38:04 49° SSW 07:38:04 49° SSW
CZ-4C R/B 3.2 07:47:22 10° SW 07:50:57 35° WSW 07:50:57 35° WSW
Meteor 1-11 Rocket 4.3 07:49:34 10° NNW 07:54:45 58° WNW 07:54:45 58° WNW
ADEOS Rocket 4.0 08:19:48 45° WSW 08:19:50 45° WSW 08:26:04 10° NW
USA 59 Rocket 2.0 08:15:58 10° NW 08:25:30 84° SW 08:25:38 84° SW
USA 59 Rocket 3.8 10:08:28 10° W 10:12:15 23° WSW 10:12:15 23° WSW
